FW5165 Weather Reports


Display with metric or nautical units.
time (UTC)temp
F
wind
direction
speed
MPH
gust
MPH
rain 1hr
in
rain 24hr
in
rain mn
in
humidity
%
barometer
mb
20260831085521 70 101 2.0 7.0 0.00 0.00 0.00 48 1011.8
20260831085123 70 95 3.0 7.0 0.00 0.00 0.00 48 1011.8
20260831084522 70 108 2.0 5.0 0.00 0.00 0.00 47 1011.8
20260831084018 70 99 3.0 6.0 0.00 0.00 0.00 47 1011.8
20260831083517 70 106 3.0 6.0 0.00 0.00 0.00 47 1011.8
20260831083017 70 102 2.0 5.0 0.00 0.00 0.00 47 1011.8
20260831082518 70 104 2.0 5.0 0.00 0.00 0.00 47 1011.9
20260831082018 71 102 1.0 7.0 0.00 0.00 0.00 47 1011.8
20260831081516 71 102 2.0 7.0 0.00 0.00 0.00 47 1012.0
20260831081016 71 81 2.0 5.0 0.00 0.00 0.00 48 1011.9
20260831080514 71 95 2.0 6.0 0.00 0.00 0.00 48 1011.9
20260831080018 71 105 2.0 6.0 0.00 0.00 0.00 48 1011.9
20260831075513 71 90 2.0 5.0 0.00 0.00 0.00 47 1012.0
20260831075013 71 101 2.0 4.0 0.00 0.00 0.00 47 1012.0
20260831074512 71 96 1.0 3.0 0.00 0.00 0.00 47 1011.9
20260831074011 71 96 1.0 3.0 0.00 0.00 0.00 46 1012.0
20260831073511 72 96 1.0 2.0 0.00 0.00 0.00 46 1011.9
20260831073013 72 96 0.0 2.0 0.00 0.00 0.00 45 1012.0
20260831072510 72 96 0.0 2.0 0.00 0.00 0.00 44 1012.0
20260831072014 72 96 0.0 2.0 0.00 0.00 0.00 45 1012.0
20260831071525 72 96 0.0 2.0 0.00 0.00 0.00 45 1012.0
20260831071008 72 96 0.0 2.0 0.00 0.00 0.00 45 1011.9
20260831070507 72 166 0.0 2.0 0.00 0.00 0.00 45 1012.0
20260831070009 72 167 0.0 2.0 0.00 0.00 0.00 45 1011.9
20260831065506 73 167 0.0 2.0 0.00 0.00 0.00 44 1011.9
20260831065008 73 159 0.0 2.0 0.00 0.00 0.00 44 1012.0
20260831064506 73 159 0.0 2.0 0.00 0.00 0.00 44 1012.1
20260831064006 73 159 0.0 4.0 0.00 0.00 0.00 44 1012.0
20260831063505 73 159 0.0 3.0 0.00 0.00 0.00 44 1012.0
20260831063005 73 161 0.0 1.0 0.00 0.00 0.00 43 1012.0
20260831062505 73 161 0.0 2.0 0.00 0.00 0.00 43 1012.1
20260831062005 73 161 0.0 5.0 0.00 0.00 0.00 44 1012.2
20260831061505 74 161 2.0 5.0 0.00 0.00 0.00 44 1012.1
20260831061005 74 163 1.0 4.0 0.00 0.00 0.00 44 1012.2
20260831060504 74 163 0.0 6.0 0.00 0.00 0.00 44 1012.0
20260831060006 74 144 1.0 6.0 0.00 0.00 0.00 45 1012.1
20260831055505 74 153 1.0 4.0 0.00 0.00 0.00 45 1012.2
20260831055004 74 148 1.0 2.0 0.00 0.00 0.00 46 1012.1
20260831054504 74 148 0.0 2.0 0.00 0.00 0.00 46 1012.1
20260831054006 74 148 0.0 2.0 0.00 0.00 0.00 46 1012.1
20260831053507 74 148 0.0 6.0 0.00 0.00 0.00 46 1012.1
20260831053007 75 148 2.0 6.0 0.00 0.00 0.00 45 1012.1
20260831052503 75 148 1.0 6.0 0.00 0.00 0.00 45 1012.0
20260831052006 75 184 0.0 6.0 0.00 0.00 0.00 45 1012.0
20260831051503 75 171 0.0 6.0 0.00 0.00 0.00 44 1012.0
20260831051104 75 171 1.0 6.0 0.00 0.00 0.00 44 1012.1
20260831050503 76 164 1.0 7.0 0.00 0.00 0.00 43 1012.1
20260831050003 76 153 3.0 7.0 0.00 0.00 0.00 42 1012.0
20260831045503 76 159 3.0 7.0 0.00 0.00 0.00 43 1012.0
20260831045003 76 160 3.0 7.0 0.00 0.00 0.00 43 1012.0
20260831044502 77 156 1.0 5.0 0.00 0.00 0.00 43 1012.0
20260831044002 77 163 1.0 7.0 0.00 0.00 0.00 42 1012.0
20260831043502 77 157 3.0 6.0 0.00 0.00 0.00 42 1012.0
20260831043003 77 163 2.0 6.0 0.00 0.00 0.00 42 1011.9
20260831042502 76 155 3.0 6.0 0.00 0.00 0.00 43 1011.8
20260831042002 76 165 2.0 7.0 0.00 0.00 0.00 44 1011.9
20260831041502 75 142 3.0 7.0 0.00 0.00 0.00 44 1011.8
20260831041104 75 157 1.0 9.0 0.00 0.00 0.00 45 1011.8
20260831040600 77 191 3.0 9.0 0.00 0.00 0.00 44 1011.8
20260831040059 80 320 0.0 2.0 0.00 0.00 0.00 38 1011.5
20260831035601 80 320 0.0 2.0 0.00 0.00 0.00 38 1011.5
20260831035059 81 320 0.0 2.0 0.00 0.00 0.00 38 1011.4
20260831034603 81 320 0.0 1.0 0.00 0.00 0.00 38 1011.4
20260831034059 81 320 0.0 2.0 0.00 0.00 0.00 37 1011.3
20260831033559 81 320 0.0 2.0 0.00 0.00 0.00 37 1011.3
20260831033108 81 320 0.0 1.0 0.00 0.00 0.00 37 1011.4
20260831032559 81 320 0.0 1.0 0.00 0.00 0.00 37 1011.4
20260831032059 81 319 0.0 1.0 0.00 0.00 0.00 37 1011.2
20260831031558 81 319 0.0 1.0 0.00 0.00 0.00 37 1011.3
20260831031058 81 319 0.0 0.0 0.00 0.00 0.00 37 1011.3
20260831030558 81 319 0.0 0.0 0.00 0.00 0.00 36 1011.2
20260831030059 82 319 0.0 1.0 0.00 0.00 0.00 36 1011.2
20260831025558 82 319 0.0 1.0 0.00 0.00 0.00 36 1011.1
20260831025058 82 319 0.0 1.0 0.00 0.00 0.00 36 1011.0
20260831024558 83 319 0.0 1.0 0.00 0.00 0.00 37 1011.0
20260831024058 83 319 0.0 2.0 0.00 0.00 0.00 37 1011.1
20260831023558 84 319 0.0 1.0 0.00 0.00 0.00 36 1011.0
20260831023057 85 319 0.0 1.0 0.00 0.00 0.00 36 1011.0
20260831022559 85 319 0.0 2.0 0.00 0.00 0.00 36 1011.0
20260831022056 86 320 0.0 2.0 0.00 0.00 0.00 36 1011.0
20260831021556 86 315 0.0 2.0 0.00 0.00 0.00 35 1011.0
20260831021056 87 315 0.0 1.0 0.00 0.00 0.00 35 1011.1
20260831020559 87 338 0.0 2.0 0.00 0.00 0.00 36 1011.0
20260831020055 87 271 0.0 5.0 0.00 0.00 0.00 35 1011.1
20260831015658 87 271 0.0 5.0 0.00 0.00 0.00 35 1011.1
20260831015053 87 271 0.0 5.0 0.00 0.00 0.00 35 1011.0
20260831014553 87 269 0.0 5.0 0.00 0.00 0.00 35 1011.1
20260831014053 87 271 0.0 5.0 0.00 0.00 0.00 36 1011.1
20260831013552 87 275 1.0 7.0 0.00 0.00 0.00 36 1011.1
20260831013053 87 252 4.0 7.0 0.00 0.00 0.00 35 1011.0
20260831012553 87 246 4.0 7.0 0.00 0.00 0.00 35 1011.1
20260831012052 87 254 1.0 6.0 0.00 0.00 0.00 34 1011.1
20260831011552 87 263 3.0 7.0 0.00 0.00 0.00 35 1011.2
20260831011051 87 233 4.0 7.0 0.00 0.00 0.00 34 1011.2
20260831010550 87 215 4.0 9.0 0.00 0.00 0.00 34 1011.1
20260831010050 88 218 5.0 9.0 0.00 0.00 0.00 31 1011.2
20260831005551 88 219 5.0 9.0 0.00 0.00 0.00 28 1011.2
20260831005053 89 269 1.0 7.0 0.00 0.00 0.00 30 1011.2
20260831004548 88 265 2.0 6.0 0.00 0.00 0.00 32 1011.2
20260831004051 88 189 3.0 8.0 0.00 0.00 0.00 31 1011.3
20260831003547 88 209 4.0 8.0 0.00 0.00 0.00 27 1011.3
20260831003051 88 211 4.0 7.0 0.00 0.00 0.00 27 1011.3
20260831002547 88 198 3.0 9.0 0.00 0.00 0.00 27 1011.3
20260831002047 88 229 5.0 9.0 0.00 0.00 0.00 27 1011.3
20260831001546 89 193 6.0 8.0 0.00 0.00 0.00 26 1011.4
20260831001045 89 238 5.0 7.0 0.00 0.00 0.00 28 1011.5
20260831000544 89 259 1.0 6.0 0.00 0.00 0.00 27 1011.4
20260831000043 88 260 3.0 7.0 0.00 0.00 0.00 27 1011.4
20260830235546 88 275 5.0 8.0 0.00 0.00 0.00 26 1011.5
20260830235042 88 256 2.0 9.0 0.00 0.00 0.00 27 1011.5
20260830234555 88 188 4.0 10.0 0.00 0.00 0.00 27 1011.5
20260830234041 88 183 4.0 10.0 0.00 0.00 0.00 28 1011.6
20260830233541 88 271 3.0 7.0 0.00 0.00 0.00 27 1011.6
20260830233040 88 250 1.0 10.0 0.00 0.00 0.00 26 1011.7
20260830232540 88 197 7.0 10.0 0.00 0.00 0.00 26 1011.8
20260830232040 88 218 6.0 9.0 0.00 0.00 0.00 27 1011.8
20260830231538 88 226 3.0 7.0 0.00 0.00 0.00 27 1011.8
20260830231038 88 232 2.0 13.0 0.00 0.00 0.00 29 1011.9
20260830230538 87 213 4.0 13.0 0.00 0.00 0.00 29 1012.0
20260830230038 88 164 6.0 11.0 0.00 0.00 0.00 28 1012.0
20260830225537 88 250 8.0 11.0 0.00 0.00 0.00 28 1012.1
20260830225037 88 223 4.0 10.0 0.00 0.00 0.00 30 1012.1
20260830224537 87 254 6.0 11.0 0.00 0.00 0.00 30 1012.1
20260830224036 87 211 5.0 11.0 0.00 0.00 0.00 28 1012.2
20260830223537 88 337 1.0 7.0 0.00 0.00 0.00 30 1012.2
20260830223038 87 310 2.0 9.0 0.00 0.00 0.00 31 1012.4
20260830222536 87 272 3.0 10.0 0.00 0.00 0.00 30 1012.4
20260830222035 89 264 5.0 10.0 0.00 0.00 0.00 29 1012.6
20260830221535 88 277 2.0 6.0 0.00 0.00 0.00 31 1012.6
20260830221033 87 250 1.0 8.0 0.00 0.00 0.00 31 1012.6
20260830220531 87 271 4.0 8.0 0.00 0.00 0.00 31 1012.7
20260830220031 87 355 2.0 7.0 0.00 0.00 0.00 32 1012.7
20260830215529 87 267 2.0 11.0 0.00 0.00 0.00 35 1012.7
20260830215030 86 267 5.0 11.0 0.00 0.00 0.00 33 1012.8
20260830214527 85 146 2.0 9.0 0.00 0.00 0.00 34 1012.9
20260830214025 85 202 5.0 10.0 0.00 0.00 0.00 35 1013.0
20260830213525 85 213 6.0 10.0 0.00 0.00 0.00 33 1013.1
20260830213025 85 268 6.0 10.0 0.00 0.00 0.00 34 1013.1
20260830212525 85 257 4.0 9.0 0.00 0.00 0.00 35 1013.1
20260830212025 86 279 4.0 9.0 0.00 0.00 0.00 36 1013.2
20260830211524 85 275 1.0 6.0 0.00 0.00 0.00 34 1013.2
20260830211023 84 241 4.0 9.0 0.00 0.00 0.00 36 1013.3
20260830210523 84 220 5.0 9.0 0.00 0.00 0.00 36 1013.3
20260830210121 84 254 3.0 8.0 0.00 0.00 0.00 35 1013.3
20260830205520 84 319 3.0 8.0 0.00 0.00 0.00 36 1013.3
20260830205019 84 244 5.0 8.0 0.00 0.00 0.00 35 1013.4
20260830204517 84 240 2.0 10.0 0.00 0.00 0.00 36 1013.3
20260830204015 83 184 3.0 10.0 0.00 0.00 0.00 36 1013.4
20260830203515 83 157 5.0 8.0 0.00 0.00 0.00 36 1013.4
20260830203032 82 233 4.0 9.0 0.00 0.00 0.00 36 1013.4
20260830202514 82 220 4.0 9.0 0.00 0.00 0.00 37 1013.6
20260830202014 82 238 6.0 9.0 0.00 0.00 0.00 36 1013.6
20260830201514 82 264 1.0 9.0 0.00 0.00 0.00 38 1013.6
20260830201012 82 196 5.0 9.0 0.00 0.00 0.00 38 1013.7
20260830200515 81 267 3.0 9.0 0.00 0.00 0.00 38 1013.8
20260830200017 81 242 4.0 8.0 0.00 0.00 0.00 38 1013.8
20260830195511 81 236 4.0 8.0 0.00 0.00 0.00 37 1013.9
20260830195010 81 242 1.0 8.0 0.00 0.00 0.00 38 1013.8
20260830194509 80 225 3.0 8.0 0.00 0.00 0.00 39 1013.9
20260830194009 81 232 4.0 9.0 0.00 0.00 0.00 40 1013.8
20260830193507 81 247 6.0 9.0 0.00 0.00 0.00 40 1013.8
20260830193009 80 257 0.0 8.0 0.00 0.00 0.00 41 1013.9
20260830192506 79 217 5.0 8.0 0.00 0.00 0.00 40 1013.9
20260830192005 79 231 4.0 8.0 0.00 0.00 0.00 40 1013.9
20260830191507 79 246 2.0 8.0 0.00 0.00 0.00 41 1014.0
20260830191004 78 274 4.0 8.0 0.00 0.00 0.00 41 1014.0
20260830190504 78 215 5.0 8.0 0.00 0.00 0.00 41 1014.1
20260830190004 79 239 4.0 8.0 0.00 0.00 0.00 41 1014.1
20260830185503 78 240 2.0 7.0 0.00 0.00 0.00 41 1014.2
20260830185004 78 257 3.0 7.0 0.00 0.00 0.00 41 1014.2
20260830184504 78 278 0.0 6.0 0.00 0.00 0.00 42 1014.3
20260830184100 77 223 1.0 7.0 0.00 0.00 0.00 42 1014.3
20260830183601 77 207 4.0 7.0 0.00 0.00 0.00 42 1014.4
20260830183059 76 254 2.0 8.0 0.00 0.00 0.00 42 1014.4
20260830182559 76 265 5.0 8.0 0.00 0.00 0.00 42 1014.4
20260830182058 76 236 3.0 8.0 0.00 0.00 0.00 43 1014.4
20260830181601 76 241 5.0 8.0 0.00 0.00 0.00 44 1014.4
20260830181057 75 194 4.0 7.0 0.00 0.00 0.00 43 1014.5
20260830180558 75 231 1.0 8.0 0.00 0.00 0.00 44 1014.5
20260830180056 75 270 3.0 8.0 0.00 0.00 0.00 44 1014.5
20260830175555 74 213 4.0 7.0 0.00 0.00 0.00 45 1014.5
20260830175056 75 225 4.0 6.0 0.00 0.00 0.00 43 1014.6
20260830174610 74 267 1.0 8.0 0.00 0.00 0.00 46 1014.5
20260830174053 74 273 2.0 8.0 0.00 0.00 0.00 45 1014.5
20260830173556 74 217 3.0 7.0 0.00 0.00 0.00 46 1014.5
20260830173109 73 262 2.0 7.0 0.00 0.00 0.00 46 1014.6
20260830172552 73 277 0.0 4.0 0.00 0.00 0.00 47 1014.6
20260830171554 72 281 1.0 6.0 0.00 0.00 0.00 47 1014.7
20260830171049 72 281 1.0 6.0 0.00 0.00 0.00 48 1014.6
20260830170547 72 264 2.0 7.0 0.00 0.00 0.00 49 1014.6
20260830170048 71 254 4.0 6.0 0.00 0.00 0.00 48 1014.6
20260830165546 71 221 1.0 5.0 0.00 0.00 0.00 48 1014.6
20260830165046 71 216 1.0 6.0 0.00 0.00 0.00 48 1014.6
20260830164547 70 240 1.0 6.0 0.00 0.00 0.00 50 1014.6
20260830164045 70 269 4.0 6.0 0.00 0.00 0.00 48 1014.6
20260830163647 70 218 3.0 6.0 0.00 0.00 0.00 49 1014.6
20260830163045 70 271 2.0 5.0 0.00 0.00 0.00 49 1014.6
20260830162544 70 252 1.0 5.0 0.00 0.00 0.00 49 1014.5
20260830162043 69 292 2.0 5.0 0.00 0.00 0.00 50 1014.6
20260830161544 69 245 1.0 7.0 0.00 0.00 0.00 50 1014.5
20260830161046 69 279 1.0 4.0 0.00 0.00 0.00 49 1014.5
20260830160546 69 259 2.0 4.0 0.00 0.00 0.00 50 1014.6
20260830160043 68 142 1.0 4.0 0.00 0.00 0.00 50 1014.6
20260830155543 68 151 0.0 4.0 0.00 0.00 0.00 50 1014.5
20260830155046 67 152 1.0 4.0 0.00 0.00 0.00 52 1014.6
20260830154543 67 151 0.0 1.0 0.00 0.00 0.00 51 1014.6
20260830154041 67 115 0.0 1.0 0.00 0.00 0.00 52 1014.6
20260830153542 66 141 0.0 1.0 0.00 0.00 0.00 52 1014.7
20260830153041 66 142 0.0 2.0 0.00 0.00 0.00 53 1014.6
20260830152541 66 360 0.0 2.0 0.00 0.00 0.00 53 1014.7
20260830152041 65 138 0.0 2.0 0.00 0.00 0.00 52 1014.7
20260830151540 65 137 0.0 0.0 0.00 0.00 0.00 52 1014.6
20260830151040 64 360 0.0 1.0 0.00 0.00 0.00 52 1014.6
20260830150540 64 137 0.0 2.0 0.00 0.00 0.00 52 1014.5
20260830150048 64 103 1.0 2.0 0.00 0.00 0.00 52 1014.6
20260830145540 64 103 1.0 4.0 0.00 0.00 0.00 53 1014.5
20260830145039 63 104 0.0 2.0 0.00 0.00 0.00 52 1014.5
20260830144543 63 104 0.0 1.0 0.00 0.00 0.00 52 1014.4
20260830144041 63 104 0.0 1.0 0.00 0.00 0.00 52 1014.5
20260830143537 63 17 0.0 1.0 0.00 0.00 0.00 52 1014.4
20260830143041 62 22 0.0 1.0 0.00 0.00 0.00 52 1014.4
20260830142537 62 36 0.0 1.0 0.00 0.00 0.00 52 1014.3
20260830142035 62 46 0.0 1.0 0.00 0.00 0.00 52 1014.2
20260830141536 62 49 0.0 1.0 0.00 0.00 0.00 53 1014.2
20260830141034 62 15 0.0 4.0 0.00 0.00 0.00 52 1014.2
20260830140538 62 15 1.0 4.0 0.00 0.00 0.00 52 1014.2
20260830140033 62 52 1.0 4.0 0.00 0.00 0.00 52 1014.1
20260830135532 62 69 1.0 3.0 0.00 0.00 0.00 52 1014.0
20260830135032 62 58 0.0 4.0 0.00 0.00 0.00 52 1013.9
20260830134533 62 57 2.0 3.0 0.00 0.00 0.00 52 1013.9
20260830134030 63 58 1.0 4.0 0.00 0.00 0.00 51 1013.8
20260830133529 63 27 0.0 2.0 0.00 0.00 0.00 51 1013.7
20260830133028 63 27 0.0 1.0 0.00 0.00 0.00 51 1013.7
20260830132527 63 27 0.0 2.0 0.00 0.00 0.00 50 1013.7
20260830132027 63 13 0.0 2.0 0.00 0.00 0.00 51 1013.6
20260830131533 63 13 0.0 1.0 0.00 0.00 0.00 51 1013.6
20260830131027 63 13 0.0 2.0 0.00 0.00 0.00 51 1013.6
20260830130526 62 13 0.0 2.0 0.00 0.00 0.00 51 1013.5
20260830130026 62 13 1.0 2.0 0.00 0.00 0.00 51 1013.5
20260830125526 63 13 0.0 0.0 0.00 0.00 0.00 50 1013.5
20260830125030 63 13 0.0 0.0 0.00 0.00 0.00 50 1013.5
20260830124532 63 13 0.0 2.0 0.00 0.00 0.00 50 1013.5
20260830124024 63 13 0.0 2.0 0.00 0.00 0.00 50 1013.4
20260830123523 63 13 0.0 2.0 0.00 0.00 0.00 50 1013.3
20260830123023 63 13 1.0 2.0 0.00 0.00 0.00 50 1013.3
20260830122522 62 13 0.0 2.0 0.00 0.00 0.00 51 1013.2
20260830122021 62 13 0.0 4.0 0.00 0.00 0.00 51 1013.2
20260830121521 62 13 0.0 5.0 0.00 0.00 0.00 51 1013.2
20260830121020 62 13 3.0 5.0 0.00 0.00 0.00 51 1013.2
20260830120519 62 164 0.0 2.0 0.00 0.00 0.00 50 1013.3
20260830120018 62 164 0.0 2.0 0.00 0.00 0.00 50 1013.1
20260830115517 63 164 1.0 2.0 0.00 0.00 0.00 50 1013.2
20260830115018 63 164 0.0 1.0 0.00 0.00 0.00 50 1013.1
20260830114515 63 164 0.0 2.0 0.00 0.00 0.00 49 1013.2
20260830114015 64 164 0.0 0.0 0.00 0.00 0.00 49 1013.2
20260830113513 64 164 0.0 1.0 0.00 0.00 0.00 49 1013.3
20260830113013 64 360 0.0 2.0 0.00 0.00 0.00 49 1013.2
20260830112512 64 360 0.0 4.0 0.00 0.00 0.00 48 1013.2
20260830112011 64 165 0.0 3.0 0.00 0.00 0.00 48 1013.1
20260830111511 65 360 0.0 1.0 0.00 0.00 0.00 48 1013.2
20260830111113 65 165 0.0 2.0 0.00 0.00 0.00 47 1013.2
20260830110511 65 360 0.0 5.0 0.00 0.00 0.00 48 1013.3
20260830110010 65 165 2.0 5.0 0.00 0.00 0.00 47 1013.2
20260830105509 65 166 0.0 5.0 0.00 0.00 0.00 47 1013.2
20260830105009 65 167 0.0 6.0 0.00 0.00 0.00 48 1013.3
20260830104509 65 172 1.0 6.0 0.00 0.00 0.00 48 1013.3
20260830104008 66 142 0.0 6.0 0.00 0.00 0.00 48 1013.2
20260830103508 66 151 2.0 6.0 0.00 0.00 0.00 49 1013.2
20260830103008 66 156 3.0 7.0 0.00 0.00 0.00 48 1013.3
20260830102513 66 151 4.0 7.0 0.00 0.00 0.00 50 1013.3
20260830102006 65 168 1.0 6.0 0.00 0.00 0.00 48 1013.3
20260830101506 65 157 1.0 5.0 0.00 0.00 0.00 47 1013.3
20260830101006 65 154 0.0 4.0 0.00 0.00 0.00 47 1013.3
20260830100506 65 154 0.0 5.0 0.00 0.00 0.00 47 1013.3
20260830100020 65 157 3.0 5.0 0.00 0.00 0.00 48 1013.4
20260830095506 65 157 0.0 2.0 0.00 0.00 0.00 48 1013.3
20260830095005 65 157 0.0 4.0 0.00 0.00 0.00 48 1013.3
20260830094504 65 157 1.0 5.0 0.00 0.00 0.00 48 1013.3
20260830094004 65 157 2.0 5.0 0.00 0.00 0.00 48 1013.3
20260830093503 64 163 1.0 5.0 0.00 0.00 0.00 48 1013.3
20260830093002 65 360 0.0 2.0 0.00 0.00 0.00 48 1013.3
20260830092501 65 171 0.0 1.0 0.00 0.00 0.00 48 1013.3
20260830092100 65 170 0.0 2.0 0.00 0.00 0.00 48 1013.3
20260830091600 66 360 0.0 2.0 0.00 0.00 0.00 47 1013.2
20260830091058 66 168 0.0 2.0 0.00 0.00 0.00 47 1013.3
20260830090558 66 166 0.0 2.0 0.00 0.00 0.00 46 1013.2
20260830090058 67 161 0.0 5.0 0.00 0.00 0.00 46 1013.1